Back to catalog

STARLINK-31343

AliveCommunicationsVLEO
NORAD 59093·PAYLOAD·🇺🇸 United States

Launched Feb 29, 2024 from Cape Canaveral Space Force Station

Loading…

Next Passes (next 24 hours)

TLE

FreshSource: CelesTrak SupGP

Epoch: Sep 14, 2026, 14:19 UTC

1 59093C 24041V   26257.59701389  .00042358  00000+0  15346-2 0  2570
2 59093  43.0021 324.1155 0001532 279.9302 286.6260 15.27549790    12

Track STARLINK-31343 in real time with AllMySat

Download on the App Store